TimeEST,TemperatureF,Dew PointF,Humidity,Sea Level PressureIn,VisibilityMPH,Wind Direction,Wind SpeedMPH,Gust SpeedMPH,PrecipitationIn,Events,Conditions,WindDirDegrees,DateUTC
12:00 AM,14.0,6.8,73,30.05,2.0,NNW,13.8,20.7,0.00,Snow,Light Snow,330,2014-01-03 05:00:00
12:08 AM,14.0,6.8,73,30.06,1.8,NNW,17.3,20.7,0.00,Snow,Light Snow,330,2014-01-03 05:08:00
12:14 AM,14.0,5.0,67,30.07,3.0,NNW,16.1,24.2,0.00,Snow,Light Snow,330,2014-01-03 05:14:00
12:39 AM,12.2,5.0,73,30.08,6.0,NNW,10.4,19.6,0.00,,Haze,340,2014-01-03 05:39:00
12:50 AM,12.2,6.8,79,30.09,4.0,NNW,8.1,19.6,0.00,Snow,Light Snow,330,2014-01-03 05:50:00
12:53 AM,12.9,6.1,74,30.14,3.0,NNW,8.1,-,0.00,Snow,Light Snow,330,2014-01-03 05:53:00
1:13 AM,12.2,6.8,79,30.10,1.8,NNW,8.1,-,0.00,Snow,Light Snow,330,2014-01-03 06:13:00
1:24 AM,12.2,6.8,79,30.10,2.5,NNW,9.2,-,0.00,Snow,Light Snow,330,2014-01-03 06:24:00
1:32 AM,12.2,6.8,79,30.11,3.0,NW,8.1,-,0.00,Snow,Light Snow,320,2014-01-03 06:32:00
1:41 AM,12.2,6.8,79,30.11,2.5,NNW,12.7,16.1,0.00,Snow,Light Snow,330,2014-01-03 06:41:00
1:53 AM,12.9,6.1,74,30.18,2.5,NNW,9.2,-,0.00,Snow,Light Snow,340,2014-01-03 06:53:00
2:09 AM,12.2,6.8,79,30.14,1.2,NW,6.9,-,0.00,Snow,Light Snow,320,2014-01-03 07:09:00
2:22 AM,12.2,6.8,79,30.15,3.0,NW,9.2,-,0.00,Snow,Light Snow,320,2014-01-03 07:22:00
2:53 AM,12.9,3.0,65,30.22,10.0,NW,10.4,18.4,0.00,,Overcast,320,2014-01-03 07:53:00
3:41 AM,12.2,5.0,73,30.20,6.0,NW,9.2,-,0.00,Snow,Light Snow,310,2014-01-03 08:41:00
3:53 AM,12.9,5.0,71,30.25,5.0,NW,10.4,-,0.00,Snow,Light Snow,320,2014-01-03 08:53:00
4:53 AM,10.9,3.0,70,30.28,6.0,WNW,12.7,-,0.00,Snow,Light Snow,300,2014-01-03 09:53:00
5:34 AM,10.4,1.4,67,30.26,10.0,WNW,11.5,-,0.00,,Overcast,300,2014-01-03 10:34:00
5:46 AM,10.4,1.4,67,30.27,7.0,WNW,10.4,-,0.00,Snow,Light Snow,300,2014-01-03 10:46:00
5:53 AM,10.0,1.9,70,30.32,7.0,WNW,8.1,-,0.00,Snow,Light Snow,300,2014-01-03 10:53:00
6:53 AM,8.1,-0.0,70,30.35,10.0,WNW,6.9,-,N/A,,Partly Cloudy,300,2014-01-03 11:53:00
7:53 AM,7.0,-0.0,73,30.39,10.0,WNW,6.9,-,N/A,,Clear,300,2014-01-03 12:53:00
8:53 AM,7.0,-0.9,70,30.43,10.0,West,6.9,-,N/A,,Mostly Cloudy,280,2014-01-03 13:53:00
9:53 AM,6.1,-2.0,69,30.47,10.0,WNW,8.1,-,N/A,,Mostly Cloudy,290,2014-01-03 14:53:00
10:48 AM,8.6,-0.4,67,30.42,10.0,West,4.6,-,N/A,,Mostly Cloudy,280,2014-01-03 15:48:00
10:53 AM,8.1,-0.0,70,30.48,10.0,WNW,6.9,-,N/A,,Mostly Cloudy,300,2014-01-03 15:53:00
11:06 AM,8.6,-0.4,67,30.42,10.0,WNW,5.8,-,N/A,,Scattered Clouds,290,2014-01-03 16:06:00
11:53 AM,10.0,-0.0,64,30.47,10.0,WNW,6.9,-,N/A,,Clear,290,2014-01-03 16:53:00
12:53 PM,12.9,1.0,59,30.45,10.0,NNW,4.6,-,N/A,,Clear,340,2014-01-03 17:53:00
1:53 PM,12.9,-0.0,56,30.45,10.0,West,3.5,-,N/A,,Clear,280,2014-01-03 18:53:00
2:53 PM,15.1,-0.0,51,30.44,10.0,Variable,3.5,-,N/A,,Clear,0,2014-01-03 19:53:00
3:53 PM,15.1,-0.9,49,30.46,10.0,Calm,Calm,-,N/A,,Clear,0,2014-01-03 20:53:00
4:53 PM,14.0,-0.9,52,30.47,10.0,WSW,4.6,-,N/A,,Clear,240,2014-01-03 21:53:00
5:53 PM,12.9,-0.9,54,30.46,10.0,Calm,Calm,-,N/A,,Clear,0,2014-01-03 22:53:00
6:53 PM,12.0,-0.9,56,30.47,10.0,South,3.5,-,N/A,,Clear,190,2014-01-03 23:53:00
7:53 PM,9.0,-0.9,64,30.45,10.0,SE,3.5,-,N/A,,Clear,140,2014-01-04 00:53:00
8:53 PM,8.1,-0.9,67,30.43,10.0,SE,4.6,-,N/A,,Partly Cloudy,130,2014-01-04 01:53:00
9:53 PM,8.1,-0.0,70,30.43,10.0,SE,4.6,-,N/A,,Overcast,140,2014-01-04 02:53:00
10:53 PM,10.0,1.0,67,30.40,10.0,SSE,5.8,-,N/A,,Scattered Clouds,150,2014-01-04 03:53:00
11:53 PM,10.0,1.9,70,30.38,10.0,SE,8.1,-,N/A,,Clear,140,2014-01-04 04:53:00